Voltar ao catálogo

SL-16 DEB

AtivoLEO
NORAD 39873·DEBRIS·🇷🇺 Russia

Lançado Mar 26, 1993 de Baikonur Cosmodrome

Loading…

Próximas Passagens (próximas 24 horas)

TLE

AtualizadoSource: Space-Track

Época: Sep 14, 2026, 14:42 UTC

1 39873U 93016AX  26257.61318834  .00002378  00000-0  65994-3 0  9991
2 39873  70.3911 331.7105 0079898  24.0338 336.4492 14.45812560638356

Acompanhe SL-16 DEB em tempo real com AllMySat

Download on the App Store